Theta_e
322 325 328 327 329 330 329 331 332 331 330 332 333 335 333 334 333 328 327 324 322 325 326 326 327 326 326 323 320 318 317 315 314 312 311 312 312 312 311 310 309 309 310 310
321 328 329 330 331 333 331 332 334 332 330 331 333 334 330 328 328 331 327 326 324 325 326 327 328 326 325 323 320 319 317 316 314 311 312 312 311 311 311 311 311 311 310 310
325 327 331 331 331 331 329 331 332 335 330 329 329 334 331 329 327 326 327 327 325 325 326 326 328 325 324 323 321 319 317 316 313 311 312 311 311 312 311 310 311 310 310 310
328 327 331 331 332 329 330 329 332 331 330 333 327 329 332 330 328 326 326 326 326 325 327 328 327 326 325 323 321 319 317 315 313 312 311 312 312 313 313 312 309 309 310 310
328 328 329 329 330 328 328 331 330 330 328 326 326 327 326 328 327 326 326 327 326 326 326 327 327 326 324 323 322 319 317 315 313 311 311 312 312 312 313 313 310 310 310 311
328 331 329 330 327 327 329 325 320 322 321 326 327 326 324 327 328 327 327 328 327 324 325 325 326 326 324 323 322 318 316 315 313 311 312 312 312 313 313 313 312 310 310 311
327 327 329 326 326 322 323 319 324 324 327 329 326 322 322 323 325 326 326 327 327 327 326 326 325 324 324 322 321 317 315 313 313 312 312 312 313 313 312 313 312 312 311 311
328 330 326 325 325 328 324 318 320 325 327 328 324 328 323 321 325 326 326 327 327 326 325 326 325 324 324 321 319 317 315 313 313 311 312 312 313 313 312 313 312 312 312 311
328 329 326 324 323 323 325 326 320 324 322 324 326 326 321 320 323 325 325 325 325 325 325 325 323 323 322 319 318 317 314 313 312 311 311 313 313 311 311 311 311 309 309 308
326 329 326 326 322 321 323 321 323 319 327 329 326 326 323 320 319 323 324 325 323 324 323 323 321 321 321 319 318 316 314 313 312 311 312 312 312 311 311 311 311 311 310 310
322 324 325 323 323 322 321 322 321 319 321 324 325 324 319 319 316 319 319 320 320 322 322 321 321 320 320 318 318 316 315 313 313 311 312 313 313 311 312 312 312 310 310 310
323 320 323 324 323 321 319 322 319 321 326 320 320 320 314 313 313 315 316 317 317 317 320 319 317 318 318 319 318 316 315 313 313 311 312 313 313 311 312 311 311 313 311 310
323 321 325 327 319 318 317 317 317 316 316 321 320 319 317 318 319 318 318 318 318 317 318 317 317 316 315 315 315 315 314 314 313 312 312 313 314 313 311 311 311 312 314 312
323 319 324 327 320 319 319 317 315 314 315 317 317 321 319 319 320 319 318 318 317 317 316 317 317 317 317 316 316 315 315 313 313 312 312 313 314 314 312 311 311 311 312 313
317 321 318 316 319 320 321 322 320 317 316 318 320 321 320 319 319 319 318 317 317 315 314 313 314 315 316 317 316 315 315 313 313 313 312 312 313 314 312 310 311 311 312 312
317 321 319 321 322 322 323 322 322 323 322 320 321 323 320 321 320 316 317 316 313 311 309 308 308 310 312 313 315 316 313 314 313 313 312 312 312 313 310 311 310 311 311 312
321 322 321 323 323 323 325 324 323 323 322 322 324 321 318 319 315 314 311 310 310 309 310 309 309 310 310 310 312 315 315 314 314 314 313 312 312 312 312 312 311 311 313 312
324 323 320 324 321 323 323 322 322 322 318 316 317 317 315 316 314 309 310 311 310 311 311 311 311 311 311 310 310 313 314 315 315 314 313 313 312 313 313 312 311 312 313 313
322 321 324 324 322 326 325 322 323 322 317 315 317 315 311 312 311 309 309 311 311 311 311 311 311 311 310 309 309 312 315 315 316 313 314 312 312 312 313 311 311 312 312 314
322 320 323 321 325 327 322 319 318 318 319 313 314 313 312 310 307 307 310 311 311 308 308 309 309 309 309 308 308 308 311 315 316 315 314 313 313 313 312 313 312 311 312 312
322 321 323 322 326 324 317 317 318 318 314 312 314 312 311 309 310 311 310 311 310 308 308 308 307 307 308 308 308 307 307 309 313 314 314 314 314 314 314 313 313 312 312 313
322 321 321 319 324 324 315 313 313 313 312 310 310 310 311 310 311 311 310 310 310 309 308 308 308 307 306 307 308 309 309 307 308 311 315 314 314 313 314 314 314 312 313 313
321 317 319 316 315 314 312 311 312 311 311 311 310 311 311 311 311 311 310 310 311 311 310 309 310 309 308 307 308 309 309 308 307 310 313 314 314 312 314 314 313 313 314 314
320 316 314 314 315 315 312 312 312 311 312 311 311 311 311 311 312 311 310 311 311 311 310 310 310 310 309 308 307 308 309 308 307 308 310 310 310 310 312 312 314 314 314 315
318 317 315 314 316 316 313 313 313 312 312 311 312 312 311 311 310 309 310 309 308 308 308 308 309 310 309 308 307 309 309 308 307 307 305 308 309 310 309 309 313 313 314 314
318 315 314 314 317 315 315 313 312 313 312 312 311 311 310 309 309 308 307 307 307 306 305 305 305 307 307 307 307 307 307 307 308 307 307 307 306 307 308 309 310 313 314 314
Wind_Speed
2 5 3 5 7 5 6 6 7 2 4 6 9 9 7 1 9 15 18 13 11 16 18 16 17 15 12 10 9 11 14 17 18 22 17 12 14 13 12 12 12 13 13 14
5 1 4 1 4 3 7 9 4 3 5 6 9 8 6 10 11 5 21 21 14 14 18 18 16 17 12 14 11 13 15 16 18 19 16 16 17 16 15 13 12 13 13 13
5 3 2 4 2 3 3 6 6 6 7 6 6 3 2 2 2 1 8 17 17 15 15 19 17 11 13 16 14 15 15 17 18 17 14 13 12 15 16 12 11 12 12 12
2 2 2 2 2 4 2 1 12 16 4 3 0 2 2 1 2 2 6 11 16 14 12 16 19 14 13 15 16 16 16 16 19 18 13 14 16 18 19 18 15 13 12 13
1 2 0 2 2 4 3 6 11 5 6 4 6 4 4 1 5 4 7 14 15 13 12 16 16 14 14 16 17 18 15 17 19 15 11 13 16 18 19 19 14 12 12 13
3 3 4 2 6 9 12 12 8 5 3 3 3 3 4 2 3 5 8 10 16 17 16 13 15 18 17 18 17 16 16 17 18 14 11 14 18 19 21 18 14 13 12 12
5 5 2 7 5 2 6 4 3 3 4 3 3 3 5 4 4 5 11 10 10 14 13 10 13 12 15 15 17 14 14 17 18 14 10 14 18 21 21 17 14 14 14 13
2 3 7 10 3 1 3 5 4 4 3 2 4 1 3 5 3 5 6 6 6 9 12 13 15 15 16 16 16 14 13 17 18 15 11 14 17 19 17 13 13 14 15 16
4 2 3 5 3 2 1 5 3 6 3 3 2 2 5 6 4 4 7 6 7 9 14 17 14 13 19 14 15 14 13 15 17 14 12 13 16 15 10 11 13 13 13 8
2 4 4 5 7 7 6 4 1 3 3 1 3 3 3 7 7 6 7 10 14 14 13 13 16 19 19 14 16 15 14 14 16 14 12 13 12 10 7 9 11 13 13 12
3 4 5 4 4 3 5 3 6 5 3 4 3 3 4 7 6 9 19 21 21 18 14 14 14 16 17 19 18 18 16 14 17 15 12 13 9 5 7 8 10 10 12 11
1 5 3 2 3 4 2 2 3 4 2 2 3 2 9 10 17 23 24 28 29 22 16 12 17 20 18 20 20 22 20 17 17 16 15 13 9 7 10 9 12 11 8 10
5 2 3 6 6 5 6 4 4 5 3 1 4 3 12 15 20 21 24 28 28 25 28 24 21 24 23 21 24 25 22 19 16 16 16 16 12 10 9 11 11 14 11 7
7 3 4 6 4 3 4 6 3 4 4 3 1 1 8 7 9 19 24 25 18 19 23 21 27 24 22 23 25 23 25 21 17 17 20 18 16 13 10 14 10 13 13 10
5 4 4 7 8 8 6 7 10 6 2 3 1 3 3 3 7 9 9 10 14 18 20 24 26 27 26 23 22 20 23 23 22 18 19 19 16 14 9 11 12 13 10 10
5 4 4 6 6 9 7 5 7 7 5 5 3 2 5 8 2 8 10 12 16 18 21 25 26 26 26 26 24 20 18 22 23 23 20 19 17 14 10 11 9 11 13 10
3 5 3 3 6 4 5 1 5 5 4 1 3 3 9 5 6 7 10 11 13 16 20 22 24 26 28 29 27 24 22 18 21 25 23 19 17 16 14 11 13 11 8 8
5 4 2 3 1 3 3 4 7 8 6 6 2 4 5 4 1 7 8 11 15 18 20 23 24 25 26 29 28 28 24 23 23 22 24 20 18 15 16 13 10 13 8 7
5 4 3 4 2 2 3 4 4 2 3 1 3 1 4 5 7 12 12 13 16 19 22 23 24 24 25 27 30 29 24 22 17 19 19 14 16 17 15 16 13 12 10 8
7 6 4 2 3 5 1 3 8 6 3 3 4 4 6 4 3 7 14 14 15 19 19 20 21 23 24 26 28 29 26 23 18 14 16 18 17 15 19 16 17 15 12 9
3 3 3 2 2 0 1 5 6 2 4 3 6 7 8 5 11 18 19 17 16 18 18 18 19 21 23 25 25 26 27 27 24 13 16 18 18 17 17 18 21 17 18 14
2 3 1 2 1 4 3 2 5 4 2 3 7 11 13 15 18 19 17 17 18 19 18 18 19 18 20 23 25 24 26 28 25 21 14 13 17 19 17 17 16 19 19 17
1 4 4 4 4 4 6 14 10 5 2 6 9 9 12 14 18 18 19 17 18 21 22 21 22 21 19 20 22 23 24 24 24 21 15 13 13 20 11 15 18 21 20 19
2 3 4 3 3 8 12 8 7 8 8 8 11 13 13 17 20 21 21 22 20 22 22 24 25 20 20 21 21 21 21 21 22 19 17 17 19 15 21 19 18 22 22 19
3 6 5 1 1 5 7 10 8 10 11 12 13 14 13 13 14 18 18 17 20 21 22 22 20 19 20 22 22 19 19 18 19 17 18 16 15 13 12 16 11 14 16 19
6 6 4 5 12 6 8 5 6 11 10 11 8 9 11 15 15 16 20 20 19 21 24 24 21 20 20 20 20 19 19 17 16 16 18 17 18 16 14 13 14 9 16 18
Wind_Direction
29 67 264 249 210 61 106 83 99 80 126 82 86 70 36 234 221 172 196 191 219 227 233 248 252 231 232 255 279 320 337 338 342 346 349 343 340 340 334 329 328 330 328 332
29 181 233 31 106 115 102 113 92 68 67 88 99 74 58 55 21 145 194 215 236 258 245 258 255 231 240 260 291 316 329 333 339 344 346 349 351 347 338 330 323 321 321 324
149 236 100 32 359 39 130 142 185 150 104 41 110 106 133 195 74 52 231 236 244 264 259 253 239 233 250 258 288 309 322 326 335 341 346 349 356 359 354 341 328 326 320 329
106 26 95 16 303 109 304 180 139 140 124 152 207 174 201 227 281 239 240 236 234 259 259 252 247 259 247 268 281 302 309 317 329 339 345 348 351 351 351 347 337 335 337 335
321 50 8 231 65 164 198 104 130 101 82 108 359 77 264 328 321 322 242 229 230 241 266 259 258 271 258 268 279 288 296 314 327 335 336 340 344 337 336 339 343 337 331 329
52 44 72 303 25 95 107 88 57 59 92 51 296 115 304 295 288 310 310 263 248 246 284 262 253 258 262 270 275 287 310 316 329 328 327 332 331 328 326 325 331 338 331 330
19 9 5 34 94 44 87 63 34 343 11 225 281 76 231 266 243 248 288 293 269 253 260 264 271 277 262 279 277 285 315 329 325 319 315 330 324 326 325 319 322 334 336 334
157 317 7 335 34 157 219 146 156 250 191 235 342 24 272 253 278 309 323 328 307 258 259 272 291 284 274 282 280 287 314 328 318 318 307 317 318 324 327 326 322 328 325 325
129 76 311 45 346 13 337 52 158 106 31 81 281 278 341 3 342 318 342 336 313 290 282 277 275 275 270 288 282 286 300 317 316 310 295 316 323 330 345 1 356 349 337 348
124 97 13 346 17 27 91 145 71 25 131 137 329 327 259 339 327 324 303 315 319 302 299 289 290 296 284 287 276 279 289 309 314 296 289 309 325 332 346 7 17 17 21 16
96 93 314 40 14 285 348 29 58 109 99 144 158 273 328 297 331 342 346 342 332 315 307 306 309 302 292 273 280 287 286 298 309 293 282 295 308 330 331 347 334 357 3 359
97 116 91 152 287 313 66 95 107 113 190 78 121 244 346 354 38 36 22 18 19 1 352 354 336 318 303 282 287 288 285 285 306 287 277 289 280 307 319 321 320 319 336 358
171 36 87 339 347 3 43 2 89 95 88 99 138 250 8 40 38 24 23 17 16 12 355 359 340 339 328 306 302 285 281 281 293 280 272 282 283 283 299 306 308 313 312 318
95 82 155 183 181 147 45 9 35 102 90 159 194 326 358 28 40 25 5 356 345 346 348 342 338 333 314 300 294 302 292 276 279 282 272 276 279 276 298 289 291 307 303 317
85 78 68 49 83 83 80 52 49 65 153 97 90 84 346 11 9 4 351 358 358 354 348 344 340 338 339 328 309 301 295 289 270 280 283 277 284 275 292 293 295 297 312 311
20 104 54 56 55 93 85 53 62 49 45 87 93 86 290 300 332 12 3 0 356 353 353 350 346 342 337 332 331 320 301 276 276 271 278 280 276 282 264 271 287 295 296 294
80 128 98 171 174 141 54 14 101 99 36 8 47 353 330 3 59 10 358 1 351 350 348 350 351 348 347 341 333 324 305 279 281 269 273 276 274 276 267 271 268 287 302 290
123 102 105 145 171 251 313 133 103 101 84 80 70 269 355 10 312 340 336 337 340 339 337 338 338 340 345 344 339 332 322 277 289 266 265 275 272 268 258 267 266 275 295 316
86 118 89 123 83 104 162 190 183 245 170 256 267 342 346 311 312 338 338 327 328 325 322 325 329 335 340 345 347 346 340 326 294 252 265 261 276 269 265 249 251 264 276 289
59 66 107 110 142 210 52 328 309 155 208 254 222 229 264 316 354 276 331 315 322 329 331 331 335 336 340 346 350 353 357 353 330 281 253 257 273 272 260 260 250 261 271 270
12 12 93 89 120 195 290 320 128 120 238 221 219 256 270 239 293 310 314 312 315 328 337 335 339 343 343 346 350 359 359 359 355 300 257 262 259 266 263 260 244 247 259 263
138 120 115 88 142 248 358 56 120 187 214 259 262 280 281 286 304 307 318 320 310 320 328 330 330 339 347 346 344 344 349 354 353 347 312 303 253 252 264 255 259 244 257 253
52 174 171 166 209 155 105 119 129 134 181 239 262 299 291 293 304 311 305 316 320 320 319 319 323 318 326 336 339 336 341 346 350 351 351 346 320 243 273 263 246 234 248 253
77 141 103 96 229 178 161 155 185 219 249 269 273 291 304 304 307 311 316 313 315 321 320 318 317 311 319 330 334 331 333 337 344 348 349 345 343 302 270 280 261 255 241 249
176 143 135 299 220 181 214 213 237 254 269 283 289 299 308 320 328 328 329 329 328 327 326 329 331 324 327 329 331 327 327 329 336 344 351 350 348 343 314 287 296 258 248 250
185 165 154 211 183 173 183 185 256 260 278 293 303 317 323 330 332 331 329 329 332 332 331 330 327 326 330 332 331 331 326 319 323 334 339 342 348 345 337 338 295 280 246 245